Meteo pe oră la Abernethy

Astăzi, 26 Iulie, Luni

Timp Temperatura Precipitaţii Vânt Presiune Umiditate
00:00 +16°C° 0.1 mm 3 m/s 709 mmHg 66%
01:00 +15°C° 0.1 mm 2 m/s 709 mmHg 70%
02:00 +15°C° 0.1 mm 2 m/s 709 mmHg 74%
03:00 +15°C° 0 mm 2 m/s 709 mmHg 74%
04:00 +15°C° 0 mm 2 m/s 709 mmHg 73%
05:00 +16°C° 0 mm 3 m/s 709 mmHg 73%
06:00 +18°C° 0 mm 3 m/s 709 mmHg 65%
07:00 +20°C° 0 mm 4 m/s 709 mmHg 56%
08:00 +21°C° 0 mm 4 m/s 709 mmHg 48%
09:00 +23°C° 0 mm 4 m/s 709 mmHg 43%
10:00 +26°C° 0 mm 3 m/s 709 mmHg 38%
11:00 +28°C° 0 mm 2 m/s 710 mmHg 33%
12:00 +30°C° 0 mm 2 m/s 709 mmHg 31%
13:00 +31°C° 0 mm 2 m/s 709 mmHg 29%
14:00 +32°C° 0 mm 1 m/s 709 mmHg 26%
15:00 +32°C° 0 mm 1 m/s 709 mmHg 26%
16:00 +32°C° 0 mm 2 m/s 709 mmHg 26%
17:00 +32°C° 0 mm 2 m/s 708 mmHg 26%
18:00 +29°C° 0 mm 2 m/s 708 mmHg 32%
19:00 +27°C° 0 mm 2 m/s 708 mmHg 38%
20:00 +24°C° 0 mm 1 m/s 708 mmHg 44%
21:00 +23°C° 0 mm 2 m/s 708 mmHg 47%
22:00 +21°C° 0 mm 3 m/s 708 mmHg 49%
23:00 +19°C° 0 mm 3 m/s 708 mmHg 52%

Mâine, 27 Iulie, Marţi

Timp Temperatura Precipitaţii Vânt Presiune Umiditate
00:00 +19°C° 0 mm 3 m/s 708 mmHg 54%
01:00 +18°C° 0 mm 3 m/s 708 mmHg 56%
02:00 +17°C° 0 mm 3 m/s 708 mmHg 58%
03:00 +17°C° 0 mm 3 m/s 708 mmHg 59%
04:00 +17°C° 0 mm 3 m/s 708 mmHg 59%
05:00 +18°C° 0 mm 3 m/s 708 mmHg 60%
06:00 +21°C° 0 mm 4 m/s 708 mmHg 53%
07:00 +25°C° 0 mm 4 m/s 708 mmHg 45%
08:00 +28°C° 0 mm 5 m/s 708 mmHg 38%
09:00 +32°C° 0 mm 5 m/s 707 mmHg 32%
10:00 +34°C° 0 mm 5 m/s 707 mmHg 26%
11:00 +36°C° 0 mm 6 m/s 707 mmHg 20%
12:00 +39°C° 0 mm 6 m/s 707 mmHg 18%
13:00 +41°C° 0 mm 6 m/s 706 mmHg 15%
14:00 +42°C° 0 mm 6 m/s 706 mmHg 13%
15:00 +42°C° 0 mm 6 m/s 706 mmHg 12%
16:00 +42°C° 0 mm 6 m/s 705 mmHg 10%
17:00 +41°C° 0 mm 6 m/s 705 mmHg 9%
18:00 +38°C° 0 mm 6 m/s 705 mmHg 16%
19:00 +34°C° 0 mm 7 m/s 706 mmHg 23%
20:00 +30°C° 0 mm 7 m/s 706 mmHg 29%
21:00 +28°C° 0 mm 6 m/s 706 mmHg 39%
22:00 +24°C° 0 mm 6 m/s 707 mmHg 48%
23:00 +22°C° 0 mm 5 m/s 708 mmHg 57%

Poimâine, 28 Iulie, Miercuri

Timp Temperatura Precipitaţii Vânt Presiune Umiditate
00:00 +21°C° 0 mm 4 m/s 708 mmHg 61%
01:00 +20°C° 0 mm 3 m/s 709 mmHg 65%
02:00 +19°C° 0 mm 2 m/s 709 mmHg 69%
03:00 +19°C° 0 mm 2 m/s 710 mmHg 70%
04:00 +18°C° 0 mm 2 m/s 710 mmHg 70%
05:00 +18°C° 0 mm 2 m/s 710 mmHg 71%
06:00 +21°C° 0 mm 2 m/s 711 mmHg 60%
07:00 +25°C° 0 mm 2 m/s 712 mmHg 49%
08:00 +28°C° 0 mm 2 m/s 712 mmHg 38%
09:00 +30°C° 0 mm 3 m/s 713 mmHg 32%
10:00 +33°C° 0 mm 4 m/s 713 mmHg 26%
11:00 +35°C° 0 mm 4 m/s 713 mmHg 20%
12:00 +35°C° 0 mm 5 m/s 713 mmHg 18%
13:00 +36°C° 0 mm 5 m/s 713 mmHg 16%
14:00 +36°C° 0 mm 6 m/s 713 mmHg 14%
15:00 +36°C° 0 mm 6 m/s 713 mmHg 15%
16:00 +35°C° 0 mm 6 m/s 713 mmHg 16%
17:00 +35°C° 0 mm 6 m/s 713 mmHg 16%
18:00 +32°C° 0 mm 5 m/s 713 mmHg 20%
19:00 +28°C° 0 mm 4 m/s 713 mmHg 24%
20:00 +25°C° 0 mm 3 m/s 713 mmHg 27%
21:00 +24°C° 0 mm 2 m/s 714 mmHg 30%
22:00 +23°C° 0 mm 2 m/s 714 mmHg 32%
23:00 +21°C° 0 mm 2 m/s 714 mmHg 34%

29 Iulie, Joi

Timp Temperatura Precipitaţii Vânt Presiune Umiditate
00:00 +20°C° 0 mm 2 m/s 714 mmHg 39%
01:00 +19°C° 0 mm 2 m/s 714 mmHg 44%
02:00 +18°C° 0 mm 2 m/s 714 mmHg 48%
03:00 +18°C° 0 mm 2 m/s 714 mmHg 50%
04:00 +18°C° 0 mm 2 m/s 714 mmHg 51%
05:00 +18°C° 0 mm 2 m/s 714 mmHg 53%
06:00 +23°C° 0 mm 2 m/s 715 mmHg 45%
07:00 +26°C° 0 mm 2 m/s 715 mmHg 37%
08:00 +29°C° 0 mm 2 m/s 715 mmHg 30%
09:00 +31°C° 0 mm 3 m/s 715 mmHg 26%
10:00 +34°C° 0 mm 3 m/s 715 mmHg 22%
11:00 +35°C° 0 mm 3 m/s 715 mmHg 18%
12:00 +36°C° 0 mm 4 m/s 715 mmHg 18%
13:00 +37°C° 0 mm 4 m/s 714 mmHg 18%
14:00 +37°C° 0 mm 4 m/s 713 mmHg 17%
15:00 +37°C° 0 mm 4 m/s 713 mmHg 18%
16:00 +37°C° 0 mm 5 m/s 712 mmHg 19%
17:00 +36°C° 0 mm 5 m/s 712 mmHg 20%
18:00 +34°C° 0 mm 4 m/s 712 mmHg 25%
19:00 +32°C° 0 mm 4 m/s 712 mmHg 31%
20:00 +29°C° 0 mm 3 m/s 712 mmHg 36%
21:00 +27°C° 0.1 mm 3 m/s 711 mmHg 46%
22:00 +25°C° 0.1 mm 3 m/s 711 mmHg 55%
23:00 +22°C° 0.1 mm 3 m/s 710 mmHg 65%

30 Iulie, Vineri

Timp Temperatura Precipitaţii Vânt Presiune Umiditate
00:00 +22°C° 0.1 mm 3 m/s 710 mmHg 64%
01:00 +22°C° 0.1 mm 3 m/s 710 mmHg 64%
02:00 +21°C° 0.1 mm 3 m/s 710 mmHg 63%
03:00 +21°C° 0.1 mm 3 m/s 710 mmHg 66%
04:00 +21°C° 0.1 mm 3 m/s 709 mmHg 69%
05:00 +21°C° 0.1 mm 3 m/s 709 mmHg 72%
06:00 +22°C° 0.2 mm 4 m/s 709 mmHg 68%
07:00 +25°C° 0.2 mm 4 m/s 709 mmHg 64%
08:00 +26°C° 0.2 mm 4 m/s 709 mmHg 60%
09:00 +29°C° 0 mm 4 m/s 709 mmHg 50%
10:00 +32°C° 0 mm 4 m/s 709 mmHg 40%
11:00 +35°C° 0 mm 4 m/s 709 mmHg 30%
12:00 +36°C° 0 mm 5 m/s 709 mmHg 29%
13:00 +36°C° 0 mm 5 m/s 709 mmHg 28%
14:00 +38°C° 0 mm 6 m/s 709 mmHg 26%
15:00 +36°C° 0 mm 6 m/s 709 mmHg 26%
16:00 +35°C° 0 mm 7 m/s 709 mmHg 26%
17:00 +34°C° 0 mm 7 m/s 709 mmHg 25%
18:00 +33°C° 0 mm 7 m/s 710 mmHg 26%
19:00 +30°C° 0 mm 7 m/s 710 mmHg 26%
20:00 +28°C° 0 mm 7 m/s 711 mmHg 26%
21:00 +26°C° 0 mm 6 m/s 711 mmHg 30%
22:00 +23°C° 0 mm 6 m/s 711 mmHg 33%
23:00 +20°C° 0 mm 5 m/s 712 mmHg 37%

31 Iulie, Sâmbătă

Timp Temperatura Precipitaţii Vânt Presiune Umiditate
00:00 +19°C° 0 mm 4 m/s 712 mmHg 45%
01:00 +18°C° 0 mm 4 m/s 713 mmHg 54%
02:00 +16°C° 0 mm 3 m/s 713 mmHg 62%
03:00 +16°C° 0 mm 3 m/s 713 mmHg 67%
04:00 +14°C° 0 mm 3 m/s 714 mmHg 71%
05:00 +13°C° 0 mm 3 m/s 714 mmHg 76%
06:00 +16°C° 0 mm 3 m/s 714 mmHg 67%
07:00 +18°C° 0 mm 3 m/s 715 mmHg 58%
08:00 +21°C° 0 mm 4 m/s 715 mmHg 49%
09:00 +22°C° 0 mm 4 m/s 715 mmHg 42%
10:00 +25°C° 0 mm 4 m/s 715 mmHg 35%
11:00 +26°C° 0 mm 4 m/s 715 mmHg 28%
12:00 +27°C° 0 mm 4 m/s 715 mmHg 26%
13:00 +28°C° 0 mm 4 m/s 715 mmHg 24%
14:00 +29°C° 0 mm 4 m/s 715 mmHg 22%
15:00 +29°C° 0 mm 4 m/s 714 mmHg 22%
16:00 +29°C° 0 mm 4 m/s 714 mmHg 22%
17:00 +29°C° 0 mm 4 m/s 713 mmHg 22%
18:00 +26°C° 0 mm 3 m/s 713 mmHg 27%
19:00 +24°C° 0 mm 3 m/s 713 mmHg 32%
20:00 +20°C° 0 mm 3 m/s 712 mmHg 37%
21:00 +19°C° 0 mm 3 m/s 712 mmHg 40%
22:00 +17°C° 0 mm 2 m/s 712 mmHg 44%
23:00 +16°C° 0 mm 2 m/s 712 mmHg 47%
Arată mai mult

Formular de consimțământ

Meteoprog și furnizorii noștri de servicii pot stoca și accesa date personale, precum cookies, identificatori de dispozitiv sau alte tehnologii similare pe dispozitivul dumneavoastră și procesa astfel de date pentru a personaliza conținutul și reclamele, dar și pentru a oferi caracteristici de social media și pentru a analiza traficul.

  • Stocarea și/sau accesarea informațiilor pe dispozitivul dumneavoastră

    Cookies, identificatori de dispozitiv sau alte informații pot fi stocate sau accesate pe dispozitiv în scopurile indicate mai sus.

  • Reclame și conținut personalizat, evaluarea reclamelor și a conținutului, informații despre audiențe și dezvoltarea produselor

    Reclamele și conținutul pot fi personalizate pe baza unui profil. Pot fi adăugate date suplimentare pentru a personaliza mai bine reclamele și conținutul. Performanța reclamelor și conținutului poate fi măsurată. Pot fi obținute informații despre utilizatorii care au văzut reclamele și conținutul. Aceste date pot fi utilizate pentru a dezvolta sau îmbunătăți experiența utilizatorilor, sistemele și software-ul.

Dând clic pe ‘Sunt de acord’, permiteți utilizarea cookie-urilor menționate, a identificatorilor de dispozitiv, balizelor web sau altor tehnologii similare. Setările pot fi modificate din browser-ul dispozitivului dumneavoastră.

În anumite scopuri, interesele legitime pot prima asupra consimțământului. Puteți citi mai multe informații în acest sens în Politica privind Confidențialitatea Datelor și Cookie.